Location: Columbus, NC
(35.2263°N, 82.1543°W)
Time: 14:51:19
(UTC-04:00)

BlueWalker 3 - Visible Passes

Search period start: 08 June 2026 00:00
Search period end: 18 June 2026 00:00
Orbit: 447 x 456 km, 53.2° (Epoch: 8 June)

Date Brightness Start Highest point End Pass type
(mag) Time Alt. Az. Time Alt. Az. Time Alt. Az.
8 Jun 4.8 00:07:17 10° WNW 00:07:24 11° WNW 00:07:24 11° WNW visible
8 Jun 3.6 21:52:57 10° NNW 21:55:46 22° NE 21:58:00 13° E visible
8 Jun 3.8 23:29:56 10° WNW 23:31:37 23° W 23:31:37 23° W visible
9 Jun 3.9 21:16:09 10° N 21:18:34 17° NNE 21:20:57 10° ENE visible
9 Jun 2.2 22:52:42 10° NW 22:55:52 51° WSW 22:55:52 51° WSW visible
10 Jun 1.6 22:15:33 10° NW 22:19:05 80° SW 22:20:10 42° SE visible
11 Jun 1.8 21:38:27 10° NW 21:41:59 69° NE 21:44:31 17° SE visible
12 Jun 4.1 22:40:01 10° W 22:41:51 14° SW 22:42:33 13° SW visible
13 Jun 3.8 22:02:13 10° WNW 22:04:50 20° SW 22:07:02 12° S visible
14 Jun 3.3 21:24:42 10° WNW 21:27:46 28° SW 21:30:50 10° S visible
